User: anonymous   Login
Location: Unspecified
(29.9680°N, 0.0000°E)
Time: 07:14:14
(UTC+00:00)
Language:

Vanguard 3 - Orbit

View from above orbital plane
View from above orbital plane
View from above satellite
View from above satellite

Ground track
Ground track

The orbit data is extracted from the following two-line orbital elements,

1    20U 59007A   19291.45589759 +.00000054 +00000-0 +29968-4 0  9994
2    20 033.3442 327.7217 1666258 057.7278 317.3990 11.55688637202480
Epoch (UTC): 18 October 2019 10:56:29
Eccentricity: 0.1666258
inclination: 33.3442°
perigee height: 508 km
apogee height: 3262 km
right ascension of ascending node: 327.7217°
argument of perigee: 57.7278°
revolutions per day: 11.55688637
mean anomaly at epoch: 317.3990°
orbit number at epoch: 20248

The dashed part of the orbit path shows where the satellite is in the earth's shadow,  

DLR